Location: Stilling
(56.0622°N, 9.9882°E)
Time: 23:31:13
(UTC+00:00)

Cosmos 1408 - Pass Details

Date: 13 July 2020
Orbit: 471 x 493 km, 82.6° (Epoch: 14 August)

Event Time Altitude Azimuth Distance (km) Brightness Sun altitude
Exits shadow 21:13:28 - 187° (S) 2,097 5.3 -7.4°
Reaches altitude 10° 21:14:34 10° 187° (S) 1,635 4.8 -7.5°
Maximum altitude 21:18:08 80° 101° (E) 487 2.5 -7.7°
Drops below altitude 10° 21:21:44 10° 14° (NNE) 1,653 6.0 -8.0°
Sets 21:23:51 0° 13° (NNE) 2,539 7.0 -8.1°
